{"data":{"norad_id":65114,"intl_designator":"2025-168J","name":"HULIANWANG DIGUI-57","alt_names":[],"object_type":"PAYLOAD","status":"ACTIVE","operator":null,"country":"PRC","launch_date":"2025-08-04","launch_site_code":"WSC","launch_vehicle":null,"mission":null,"orbit_class":"UNKNOWN","rcs_meters":null,"size_class":null,"mass_kg":null,"dimensions":null,"purposes":[],"wikipedia_slug":null,"has_3d_model":false,"image_url":null,"decayed_at":null,"tle_current":{"epoch":"2026-09-21T18:36:20.694528Z","epoch_age_seconds":55023,"freshness":"FRESH","line1":"1 65114U 25168J   26264.77523952 -.00000085  00000+0  84591-4 0  9993","line2":"2 65114  50.0035 338.9051 0008743  32.6295 327.5116 13.29330967 55558","mean_motion":13.29330967,"eccentricity":0.0008743,"inclination_deg":50.0035,"raan_deg":338.9051,"arg_perigee_deg":32.6295,"mean_anomaly_deg":327.5116,"bstar":8.4591e-5,"rev_number":5555,"period_min":108.32516775335,"perigee_km":1142.7065936295,"apogee_km":1155.8690486718,"semimajor_km":7527.4248211506,"source":"CELESTRAK","updated_at":"2026-09-22T09:00:30.140698Z"}}}